Year,Month,Day,Hour,Minute,Value (Times are PST for temperature in C)
2010,05,06,00,00,8.10
2010,05,06,00,01,8.10
2010,05,06,00,02,8.10
2010,05,06,00,03,8.10
2010,05,06,00,04,8.10
2010,05,06,00,05,8.10
2010,05,06,00,06,8.10
2010,05,06,00,07,8.10
2010,05,06,00,08,8.10
2010,05,06,00,09,8.10
2010,05,06,00,10,8.10
2010,05,06,00,11,8.10
2010,05,06,00,12,8.10
2010,05,06,00,13,8.00
2010,05,06,00,14,8.00
2010,05,06,00,15,8.00
2010,05,06,00,16,8.00
2010,05,06,00,17,8.00
2010,05,06,00,18,8.00
2010,05,06,00,19,8.00
2010,05,06,00,20,8.10
2010,05,06,00,21,8.10
2010,05,06,00,22,8.10
2010,05,06,00,23,8.10
2010,05,06,00,24,8.10
2010,05,06,00,25,8.10
2010,05,06,00,26,8.10
2010,05,06,00,27,8.10
2010,05,06,00,28,8.10
2010,05,06,00,29,8.10
2010,05,06,00,30,8.10
2010,05,06,00,31,8.10
2010,05,06,00,32,8.10
2010,05,06,00,33,8.10
2010,05,06,00,34,8.10
2010,05,06,00,35,8.10
2010,05,06,00,36,8.10
2010,05,06,00,37,8.00
2010,05,06,00,38,8.00
2010,05,06,00,39,8.00
2010,05,06,00,40,8.00
2010,05,06,00,41,8.10
2010,05,06,00,42,8.10
2010,05,06,00,43,8.10
2010,05,06,00,44,8.10
2010,05,06,00,45,8.10
2010,05,06,00,46,8.00
2010,05,06,00,47,8.00
2010,05,06,00,48,8.10
2010,05,06,00,49,8.10
2010,05,06,00,50,8.00
2010,05,06,00,51,8.00
2010,05,06,00,52,8.00
2010,05,06,00,53,8.00
2010,05,06,00,54,8.00
2010,05,06,00,55,8.00
2010,05,06,00,56,8.00
2010,05,06,00,57,8.00
2010,05,06,00,58,8.00
2010,05,06,00,59,8.00
2010,05,06,01,00,8.00
2010,05,06,01,01,8.00
2010,05,06,01,02,8.00
2010,05,06,01,03,8.00
2010,05,06,01,04,8.00
2010,05,06,01,05,8.00
2010,05,06,01,06,8.00
2010,05,06,01,07,8.00
2010,05,06,01,08,8.00
2010,05,06,01,09,8.00
2010,05,06,01,10,8.00
2010,05,06,01,11,8.00
2010,05,06,01,12,8.00
2010,05,06,01,13,8.00
2010,05,06,01,14,7.90
2010,05,06,01,15,7.90
2010,05,06,01,16,7.90
2010,05,06,01,17,7.90
2010,05,06,01,18,7.90
2010,05,06,01,19,7.90
2010,05,06,01,20,7.90
2010,05,06,01,21,7.90
2010,05,06,01,22,7.90
2010,05,06,01,23,7.80
2010,05,06,01,24,7.80
2010,05,06,01,25,7.80
2010,05,06,01,26,7.80
2010,05,06,01,27,7.80
2010,05,06,01,28,7.80
2010,05,06,01,29,7.80
2010,05,06,01,30,7.80
2010,05,06,01,31,7.80
2010,05,06,01,32,7.80
2010,05,06,01,33,7.80
2010,05,06,01,34,7.80
2010,05,06,01,35,7.80
2010,05,06,01,36,7.70
2010,05,06,01,37,7.70
2010,05,06,01,38,7.70
2010,05,06,01,39,7.70
2010,05,06,01,40,7.70
2010,05,06,01,41,7.70
2010,05,06,01,42,7.70
2010,05,06,01,43,7.70
2010,05,06,01,44,7.70
2010,05,06,01,45,7.70
2010,05,06,01,46,7.70
2010,05,06,01,47,7.70
2010,05,06,01,48,7.70
2010,05,06,01,49,7.70
2010,05,06,01,50,7.70
2010,05,06,01,51,7.70
2010,05,06,01,52,7.60
2010,05,06,01,53,7.60
2010,05,06,01,54,7.60
2010,05,06,01,55,7.60
2010,05,06,01,56,7.60
2010,05,06,01,57,7.60
2010,05,06,01,58,7.60
2010,05,06,01,59,7.60
2010,05,06,02,00,7.60
2010,05,06,02,01,7.60
2010,05,06,02,02,7.60
2010,05,06,02,03,7.60
2010,05,06,02,04,7.60
2010,05,06,02,05,7.60
2010,05,06,02,06,7.60
2010,05,06,02,07,7.60
2010,05,06,02,08,7.60
2010,05,06,02,09,7.60
2010,05,06,02,10,7.70
2010,05,06,02,11,7.70
2010,05,06,02,12,7.70
2010,05,06,02,13,7.70
2010,05,06,02,14,7.60
2010,05,06,02,15,7.70
2010,05,06,02,16,7.60
2010,05,06,02,17,7.60
2010,05,06,02,18,7.60
2010,05,06,02,19,7.60
2010,05,06,02,20,7.60
2010,05,06,02,21,7.60
2010,05,06,02,22,7.60
2010,05,06,02,23,7.60
2010,05,06,02,24,7.70
2010,05,06,02,25,7.70
2010,05,06,02,26,7.70
2010,05,06,02,27,7.60
2010,05,06,02,28,7.60
2010,05,06,02,29,7.60
2010,05,06,02,30,7.60
2010,05,06,02,31,7.60
2010,05,06,02,32,7.60
2010,05,06,02,33,7.60
2010,05,06,02,34,7.60
2010,05,06,02,35,7.60
2010,05,06,02,36,7.70
2010,05,06,02,37,7.60
2010,05,06,02,38,7.70
2010,05,06,02,39,7.70
2010,05,06,02,40,7.60
2010,05,06,02,41,7.60
2010,05,06,02,42,7.60
2010,05,06,02,43,7.60
2010,05,06,02,44,7.60
2010,05,06,02,45,7.60
2010,05,06,02,46,7.60
2010,05,06,02,47,7.60
2010,05,06,02,48,7.60
2010,05,06,02,49,7.60
2010,05,06,02,50,7.60
2010,05,06,02,51,7.60
2010,05,06,02,52,7.60
2010,05,06,02,53,7.60
2010,05,06,02,54,7.60
2010,05,06,02,55,7.60
2010,05,06,02,56,7.60
2010,05,06,02,57,7.50
2010,05,06,02,58,7.50
2010,05,06,02,59,7.50
2010,05,06,03,00,7.60
2010,05,06,03,01,7.60
2010,05,06,03,02,7.60
2010,05,06,03,03,7.60
2010,05,06,03,04,7.60
2010,05,06,03,05,7.60
2010,05,06,03,06,7.60
2010,05,06,03,07,7.60
2010,05,06,03,08,7.60
2010,05,06,03,09,7.60
2010,05,06,03,10,7.60
2010,05,06,03,11,7.60
2010,05,06,03,12,7.60
2010,05,06,03,13,7.60
2010,05,06,03,14,7.60
2010,05,06,03,15,7.60
2010,05,06,03,16,7.60
2010,05,06,03,17,7.60
2010,05,06,03,18,7.60
2010,05,06,03,19,7.60
2010,05,06,03,20,7.60
2010,05,06,03,21,7.60
2010,05,06,03,22,7.60
2010,05,06,03,23,7.50
2010,05,06,03,24,7.50
2010,05,06,03,25,7.60
2010,05,06,03,26,7.60
2010,05,06,03,27,7.60
2010,05,06,03,28,7.60
2010,05,06,03,29,7.60
2010,05,06,03,30,7.60
2010,05,06,03,31,7.60
2010,05,06,03,32,7.60
2010,05,06,03,33,7.50
2010,05,06,03,34,7.50
2010,05,06,03,35,7.50
2010,05,06,03,36,7.50
2010,05,06,03,37,7.50
2010,05,06,03,38,7.50
2010,05,06,03,39,7.40
2010,05,06,03,40,7.40
2010,05,06,03,41,7.40
2010,05,06,03,42,7.40
2010,05,06,03,43,7.40
2010,05,06,03,44,7.40
2010,05,06,03,45,7.40
2010,05,06,03,46,7.40
2010,05,06,03,47,7.40
2010,05,06,03,48,7.30
2010,05,06,03,49,7.30
2010,05,06,03,50,7.30
2010,05,06,03,51,7.30
2010,05,06,03,52,7.30
2010,05,06,03,53,7.30
2010,05,06,03,54,7.30
2010,05,06,03,55,7.30
2010,05,06,03,56,7.30
2010,05,06,03,57,7.30
2010,05,06,03,58,7.20
2010,05,06,03,59,7.20
2010,05,06,04,00,7.20
2010,05,06,04,01,7.20
2010,05,06,04,02,7.20
2010,05,06,04,03,7.20
2010,05,06,04,04,7.20
2010,05,06,04,05,7.20
2010,05,06,04,06,7.20
2010,05,06,04,07,7.20
2010,05,06,04,08,7.10
2010,05,06,04,09,7.10
2010,05,06,04,10,7.10
2010,05,06,04,11,7.10
2010,05,06,04,12,7.10
2010,05,06,04,13,7.00
2010,05,06,04,14,7.00
2010,05,06,04,15,7.00
2010,05,06,04,16,7.00
2010,05,06,04,17,7.00
2010,05,06,04,18,6.90
2010,05,06,04,19,6.90
2010,05,06,04,20,6.90
2010,05,06,04,21,6.90
2010,05,06,04,22,6.80
2010,05,06,04,23,6.80
2010,05,06,04,24,6.70
2010,05,06,04,25,6.70
2010,05,06,04,26,6.70
2010,05,06,04,27,6.70
2010,05,06,04,28,6.70
2010,05,06,04,29,6.70
2010,05,06,04,30,6.70
2010,05,06,04,31,6.70
2010,05,06,04,32,6.70
2010,05,06,04,33,6.60
2010,05,06,04,34,6.60
2010,05,06,04,35,6.50
2010,05,06,04,36,6.50
2010,05,06,04,37,6.40
2010,05,06,04,38,6.30
2010,05,06,04,39,6.30
2010,05,06,04,40,6.20
2010,05,06,04,41,6.10
2010,05,06,04,42,6.10
2010,05,06,04,43,5.90
2010,05,06,04,44,5.80
2010,05,06,04,45,5.80
2010,05,06,04,46,5.70
2010,05,06,04,47,5.60
2010,05,06,04,48,5.60
2010,05,06,04,49,5.50
2010,05,06,04,50,5.50
2010,05,06,04,51,5.40
2010,05,06,04,52,5.40
2010,05,06,04,53,5.40
2010,05,06,04,54,5.30
2010,05,06,04,55,5.20
2010,05,06,04,56,5.20
2010,05,06,04,57,5.20
2010,05,06,04,58,5.10
2010,05,06,04,59,5.10
2010,05,06,05,00,5.00
2010,05,06,05,01,4.90
2010,05,06,05,02,4.90
2010,05,06,05,03,4.80
2010,05,06,05,04,4.80
2010,05,06,05,05,4.70
2010,05,06,05,06,4.70
2010,05,06,05,07,4.60
2010,05,06,05,08,4.60
2010,05,06,05,09,4.60
2010,05,06,05,10,4.50
2010,05,06,05,11,4.50
2010,05,06,05,12,4.40
2010,05,06,05,13,4.30
2010,05,06,05,14,4.30
2010,05,06,05,15,4.30
2010,05,06,05,16,4.30
2010,05,06,05,17,4.20
2010,05,06,05,18,4.20
2010,05,06,05,19,4.20
2010,05,06,05,20,4.20
2010,05,06,05,21,4.20
2010,05,06,05,22,4.20
2010,05,06,05,23,4.20
2010,05,06,05,24,4.20
2010,05,06,05,25,4.10
2010,05,06,05,26,4.10
2010,05,06,05,27,4.10
2010,05,06,05,28,4.10
2010,05,06,05,29,4.10
2010,05,06,05,30,4.10
2010,05,06,05,31,4.10
2010,05,06,05,32,4.10
2010,05,06,05,33,4.10
2010,05,06,05,34,4.20
2010,05,06,05,35,4.20
2010,05,06,05,36,4.20
2010,05,06,05,37,4.30
2010,05,06,05,38,4.30
2010,05,06,05,39,4.30
2010,05,06,05,40,4.40
2010,05,06,05,41,4.40
2010,05,06,05,42,4.40
2010,05,06,05,43,4.50
2010,05,06,05,44,4.50
2010,05,06,05,45,4.50
2010,05,06,05,46,4.50
2010,05,06,05,47,4.60
2010,05,06,05,48,4.60
2010,05,06,05,49,4.50
2010,05,06,05,50,4.50
2010,05,06,05,51,4.50
2010,05,06,05,52,4.50
2010,05,06,05,53,4.50
2010,05,06,05,54,4.50
2010,05,06,05,55,4.60
2010,05,06,05,56,4.60
2010,05,06,05,57,4.60
2010,05,06,05,58,4.50
2010,05,06,05,59,4.40
2010,05,06,06,00,4.30
2010,05,06,06,01,4.30
2010,05,06,06,02,4.20
2010,05,06,06,03,4.10
2010,05,06,06,04,4.10
2010,05,06,06,05,4.00
2010,05,06,06,06,4.00
2010,05,06,06,07,3.90
2010,05,06,06,08,3.90
2010,05,06,06,09,3.90
2010,05,06,06,10,3.80
2010,05,06,06,11,3.80
2010,05,06,06,12,3.80
2010,05,06,06,13,3.80
2010,05,06,06,14,3.80
2010,05,06,06,15,3.80
2010,05,06,06,16,3.80
2010,05,06,06,17,3.80
2010,05,06,06,18,3.80
2010,05,06,06,19,3.80
2010,05,06,06,20,3.80
2010,05,06,06,21,3.80
2010,05,06,06,22,3.70
2010,05,06,06,23,3.70
2010,05,06,06,24,3.70
2010,05,06,06,25,3.70
2010,05,06,06,26,3.70
2010,05,06,06,27,3.70
2010,05,06,06,28,3.70
2010,05,06,06,29,3.70
2010,05,06,06,30,3.70
2010,05,06,06,31,3.70
2010,05,06,06,32,3.70
2010,05,06,06,33,3.80
2010,05,06,06,34,3.80
2010,05,06,06,35,3.80
2010,05,06,06,36,3.90
2010,05,06,06,37,3.90
2010,05,06,06,38,3.90
2010,05,06,06,39,3.90
2010,05,06,06,40,3.90
2010,05,06,06,41,3.90
2010,05,06,06,42,3.90
2010,05,06,06,43,3.90
2010,05,06,06,44,3.90
2010,05,06,06,45,3.90
2010,05,06,06,46,3.90
2010,05,06,06,47,3.90
2010,05,06,06,48,4.00
2010,05,06,06,49,4.00
2010,05,06,06,50,4.00
2010,05,06,06,51,4.10
2010,05,06,06,52,4.10
2010,05,06,06,53,4.20
2010,05,06,06,54,4.30
2010,05,06,06,55,4.30
2010,05,06,06,56,4.30
2010,05,06,06,57,4.40
2010,05,06,06,58,4.40
2010,05,06,06,59,4.40
2010,05,06,07,00,4.40
2010,05,06,07,01,4.40
2010,05,06,07,02,4.40
2010,05,06,07,03,4.50
2010,05,06,07,04,4.50
2010,05,06,07,05,4.60
2010,05,06,07,06,4.70
2010,05,06,07,07,4.70
2010,05,06,07,08,4.80
2010,05,06,07,09,4.90
2010,05,06,07,10,5.00
2010,05,06,07,11,5.00
2010,05,06,07,12,5.10
2010,05,06,07,13,5.20
2010,05,06,07,14,5.20
2010,05,06,07,15,5.30
2010,05,06,07,16,5.40
2010,05,06,07,17,5.40
2010,05,06,07,18,5.50
2010,05,06,07,19,5.70
2010,05,06,07,20,5.80
2010,05,06,07,21,5.90
2010,05,06,07,22,6.00
2010,05,06,07,23,6.10
2010,05,06,07,24,6.20
2010,05,06,07,25,6.20
2010,05,06,07,26,6.30
2010,05,06,07,27,6.30
2010,05,06,07,28,6.30
2010,05,06,07,29,6.30
2010,05,06,07,30,6.40
2010,05,06,07,31,6.40
2010,05,06,07,32,6.50
2010,05,06,07,33,6.60
2010,05,06,07,34,6.70
2010,05,06,07,35,6.90
2010,05,06,07,36,7.00
2010,05,06,07,37,7.10
2010,05,06,07,38,7.20
2010,05,06,07,39,7.30
2010,05,06,07,40,7.40
2010,05,06,07,41,7.40
2010,05,06,07,42,7.50
2010,05,06,07,43,7.60
2010,05,06,07,44,7.60
2010,05,06,07,45,7.70
2010,05,06,07,46,7.70
2010,05,06,07,47,7.80
2010,05,06,07,48,7.90
2010,05,06,07,49,7.90
2010,05,06,07,50,8.00
2010,05,06,07,51,8.10
2010,05,06,07,52,8.10
2010,05,06,07,53,8.20
2010,05,06,07,54,8.20
2010,05,06,07,55,8.20
2010,05,06,07,56,8.30
2010,05,06,07,57,8.30
2010,05,06,07,58,8.30
2010,05,06,07,59,8.40
2010,05,06,08,00,8.50
2010,05,06,08,01,8.60
2010,05,06,08,02,8.60
2010,05,06,08,03,8.70
2010,05,06,08,04,8.70
2010,05,06,08,05,8.80
2010,05,06,08,06,8.80
2010,05,06,08,07,8.90
2010,05,06,08,08,8.90
2010,05,06,08,09,8.90
2010,05,06,08,10,9.00
2010,05,06,08,11,9.10
2010,05,06,08,12,9.20
2010,05,06,08,13,9.40
2010,05,06,08,14,9.50
2010,05,06,08,15,9.60
2010,05,06,08,16,9.70
2010,05,06,08,17,9.80
2010,05,06,08,18,9.90
2010,05,06,08,19,9.90
2010,05,06,08,20,10.00
2010,05,06,08,21,10.00
2010,05,06,08,22,10.00
2010,05,06,08,23,10.00
2010,05,06,08,24,9.90
2010,05,06,08,25,9.90
2010,05,06,08,26,9.90
2010,05,06,08,27,9.90
2010,05,06,08,28,9.90
2010,05,06,08,29,9.90
2010,05,06,08,30,9.90
2010,05,06,08,31,9.90
2010,05,06,08,32,9.90
2010,05,06,08,33,9.90
2010,05,06,08,34,10.00
2010,05,06,08,35,10.00
2010,05,06,08,36,10.10
2010,05,06,08,37,10.10
2010,05,06,08,38,10.10
2010,05,06,08,39,10.10
2010,05,06,08,40,10.10
2010,05,06,08,41,10.10
2010,05,06,08,42,10.20
2010,05,06,08,43,10.20
2010,05,06,08,44,10.20
2010,05,06,08,45,10.20
2010,05,06,08,46,10.30
2010,05,06,08,47,10.30
2010,05,06,08,48,10.30
2010,05,06,08,49,10.40
2010,05,06,08,50,10.40
2010,05,06,08,51,10.50
2010,05,06,08,52,10.50
2010,05,06,08,53,10.60
2010,05,06,08,54,10.60
2010,05,06,08,55,10.60
2010,05,06,08,56,10.60
2010,05,06,08,57,10.70
2010,05,06,08,58,10.70
2010,05,06,08,59,10.80
2010,05,06,09,00,10.80
2010,05,06,09,01,10.90
2010,05,06,09,02,10.90
2010,05,06,09,03,11.00
2010,05,06,09,04,11.00
2010,05,06,09,05,11.10
2010,05,06,09,06,11.10
2010,05,06,09,07,11.10
2010,05,06,09,08,11.10
2010,05,06,09,09,11.20
2010,05,06,09,10,11.30
2010,05,06,09,11,11.30
2010,05,06,09,12,11.30
2010,05,06,09,13,11.30
2010,05,06,09,14,11.30
2010,05,06,09,15,11.30
2010,05,06,09,16,11.30
2010,05,06,09,17,11.30
2010,05,06,09,18,11.30
2010,05,06,09,19,11.40
2010,05,06,09,20,11.40
2010,05,06,09,21,11.50
2010,05,06,09,22,11.60
2010,05,06,09,23,11.70
2010,05,06,09,24,11.70
2010,05,06,09,25,11.80
2010,05,06,09,26,11.70
2010,05,06,09,27,11.70
2010,05,06,09,28,11.70
2010,05,06,09,29,11.70
2010,05,06,09,30,11.70
2010,05,06,09,31,11.60
2010,05,06,09,32,11.50
2010,05,06,09,33,11.50
2010,05,06,09,34,11.40
2010,05,06,09,35,11.30
2010,05,06,09,36,11.20
2010,05,06,09,37,11.10
2010,05,06,09,38,11.10
2010,05,06,09,39,11.00
2010,05,06,09,40,11.00
2010,05,06,09,41,11.00
2010,05,06,09,42,11.10
2010,05,06,09,43,11.10
2010,05,06,09,44,11.20
2010,05,06,09,45,11.30
2010,05,06,09,46,11.30
2010,05,06,09,47,11.30
2010,05,06,09,48,11.30
2010,05,06,09,49,11.30
2010,05,06,09,50,11.30
2010,05,06,09,51,11.30
2010,05,06,09,52,11.30
2010,05,06,09,53,11.30
2010,05,06,09,54,11.20
2010,05,06,09,55,11.10
2010,05,06,09,56,11.10
2010,05,06,09,57,11.00
2010,05,06,09,58,11.00
2010,05,06,09,59,11.00
2010,05,06,10,00,11.00
2010,05,06,10,01,11.00
2010,05,06,10,02,10.90
2010,05,06,10,03,10.90
2010,05,06,10,04,11.00
2010,05,06,10,05,11.00
2010,05,06,10,06,11.00
2010,05,06,10,07,10.90
2010,05,06,10,08,10.90
2010,05,06,10,09,10.90
2010,05,06,10,10,11.00
2010,05,06,10,11,11.00
2010,05,06,10,12,11.00
2010,05,06,10,13,11.00
2010,05,06,10,14,11.00
2010,05,06,10,15,11.00
2010,05,06,10,16,11.00
2010,05,06,10,17,11.10
2010,05,06,10,18,11.10
2010,05,06,10,19,11.10
2010,05,06,10,20,11.10
2010,05,06,10,21,11.10
2010,05,06,10,22,11.10
2010,05,06,10,23,11.10
2010,05,06,10,24,11.20
2010,05,06,10,25,11.20
2010,05,06,10,26,11.20
2010,05,06,10,27,11.20
2010,05,06,10,28,11.20
2010,05,06,10,29,11.30
2010,05,06,10,30,11.30
2010,05,06,10,31,11.40
2010,05,06,10,32,11.40
2010,05,06,10,33,11.50
2010,05,06,10,34,11.60
2010,05,06,10,35,11.60
2010,05,06,10,36,11.60
2010,05,06,10,37,11.60
2010,05,06,10,38,11.60
2010,05,06,10,39,11.60
2010,05,06,10,40,11.70
2010,05,06,10,41,11.70
2010,05,06,10,42,11.70
2010,05,06,10,43,11.70
2010,05,06,10,44,11.70
2010,05,06,10,45,11.80
2010,05,06,10,46,11.80
2010,05,06,10,47,11.80
2010,05,06,10,48,11.90
2010,05,06,10,49,12.00
2010,05,06,10,50,12.00
2010,05,06,10,51,12.00
2010,05,06,10,52,11.90
2010,05,06,10,53,12.00
2010,05,06,10,54,12.00
2010,05,06,10,55,12.10
2010,05,06,10,56,12.10
2010,05,06,10,57,12.10
2010,05,06,10,58,12.20
2010,05,06,10,59,12.20
2010,05,06,11,00,12.10
2010,05,06,11,01,12.10
2010,05,06,11,02,12.10
2010,05,06,11,03,12.10
2010,05,06,11,04,12.00
2010,05,06,11,05,11.90
2010,05,06,11,06,11.80
2010,05,06,11,07,11.80
2010,05,06,11,08,11.90
2010,05,06,11,09,11.90
2010,05,06,11,10,12.00
2010,05,06,11,11,11.90
2010,05,06,11,12,12.00
2010,05,06,11,13,12.00
2010,05,06,11,14,12.10
2010,05,06,11,15,12.20
2010,05,06,11,16,12.20
2010,05,06,11,17,12.30
2010,05,06,11,18,12.30
2010,05,06,11,19,12.30
2010,05,06,11,20,12.30
2010,05,06,11,21,12.30
2010,05,06,11,22,12.30
2010,05,06,11,23,12.30
2010,05,06,11,24,12.30
2010,05,06,11,25,12.20
2010,05,06,11,26,12.20
2010,05,06,11,27,12.10
2010,05,06,11,28,12.10
2010,05,06,11,29,12.10
2010,05,06,11,30,12.10
2010,05,06,11,31,12.10
2010,05,06,11,32,12.20
2010,05,06,11,33,12.30
2010,05,06,11,34,12.40
2010,05,06,11,35,12.50
2010,05,06,11,36,12.60
2010,05,06,11,37,12.60
2010,05,06,11,38,12.70
2010,05,06,11,39,12.70
2010,05,06,11,40,12.70
2010,05,06,11,41,12.70
2010,05,06,11,42,12.60
2010,05,06,11,43,12.60
2010,05,06,11,44,12.50
2010,05,06,11,45,12.50
2010,05,06,11,46,12.50
2010,05,06,11,47,12.60
2010,05,06,11,48,12.60
2010,05,06,11,49,12.50
2010,05,06,11,50,12.40
2010,05,06,11,51,12.40
2010,05,06,11,52,12.40
2010,05,06,11,53,12.30
2010,05,06,11,54,12.40
2010,05,06,11,55,12.50
2010,05,06,11,56,12.60
2010,05,06,11,57,12.60
2010,05,06,11,58,12.60
2010,05,06,11,59,12.60
2010,05,06,12,00,12.60
2010,05,06,12,01,12.70
2010,05,06,12,02,12.70
2010,05,06,12,03,12.80
2010,05,06,12,04,12.80
2010,05,06,12,05,12.80
2010,05,06,12,06,12.70
2010,05,06,12,07,12.70
2010,05,06,12,08,12.60
2010,05,06,12,09,12.60
2010,05,06,12,10,12.50
2010,05,06,12,11,12.40
2010,05,06,12,12,12.30
2010,05,06,12,13,12.20
2010,05,06,12,14,12.20
2010,05,06,12,15,12.10
2010,05,06,12,16,12.10
2010,05,06,12,17,12.10
2010,05,06,12,18,12.10
2010,05,06,12,19,12.10
2010,05,06,12,20,12.10
2010,05,06,12,21,12.20
2010,05,06,12,22,12.10
2010,05,06,12,23,12.10
2010,05,06,12,24,12.00
2010,05,06,12,25,12.00
2010,05,06,12,26,11.90
2010,05,06,12,27,11.90
2010,05,06,12,28,11.80
2010,05,06,12,29,11.80
2010,05,06,12,30,11.80
2010,05,06,12,31,11.90
2010,05,06,12,32,11.90
2010,05,06,12,33,12.00
2010,05,06,12,34,12.10
2010,05,06,12,35,12.20
2010,05,06,12,36,12.20
2010,05,06,12,37,12.20
2010,05,06,12,38,12.30
2010,05,06,12,39,12.40
2010,05,06,12,40,12.40
2010,05,06,12,41,12.40
2010,05,06,12,42,12.40
2010,05,06,12,43,12.40
2010,05,06,12,44,12.40
2010,05,06,12,45,12.50
2010,05,06,12,46,12.50
2010,05,06,12,47,12.50
2010,05,06,12,48,12.50
2010,05,06,12,49,12.50
2010,05,06,12,50,12.50
2010,05,06,12,51,12.40
2010,05,06,12,52,12.40
2010,05,06,12,53,12.40
2010,05,06,12,54,12.40
2010,05,06,12,55,12.40
2010,05,06,12,56,12.40
2010,05,06,12,57,12.40
2010,05,06,12,58,12.30
2010,05,06,12,59,12.30
2010,05,06,13,00,12.30
2010,05,06,13,01,12.30
2010,05,06,13,02,12.30
2010,05,06,13,03,12.30
2010,05,06,13,04,12.30
2010,05,06,13,05,12.30
2010,05,06,13,06,12.30
2010,05,06,13,07,12.30
2010,05,06,13,08,12.30
2010,05,06,13,09,12.20
2010,05,06,13,10,12.20
2010,05,06,13,11,12.20
2010,05,06,13,12,12.20
2010,05,06,13,13,12.10
2010,05,06,13,14,12.10
2010,05,06,13,15,12.10
2010,05,06,13,16,12.10
2010,05,06,13,17,12.10
2010,05,06,13,18,12.20
2010,05,06,13,19,12.20
2010,05,06,13,20,12.20
2010,05,06,13,21,12.30
2010,05,06,13,22,12.30
2010,05,06,13,23,12.30
2010,05,06,13,24,12.30
2010,05,06,13,25,12.40
2010,05,06,13,26,12.40
2010,05,06,13,27,12.30
2010,05,06,13,28,12.30
2010,05,06,13,29,12.20
2010,05,06,13,30,12.20
2010,05,06,13,31,12.10
2010,05,06,13,32,12.10
2010,05,06,13,33,12.20
2010,05,06,13,34,12.20
2010,05,06,13,35,12.20
2010,05,06,13,36,12.30
2010,05,06,13,37,12.30
2010,05,06,13,38,12.30
2010,05,06,13,39,12.30
2010,05,06,13,40,12.30
2010,05,06,13,41,12.20
2010,05,06,13,42,12.20
2010,05,06,13,43,12.20
2010,05,06,13,44,12.20
2010,05,06,13,45,12.20
2010,05,06,13,46,12.20
2010,05,06,13,47,12.10
2010,05,06,13,48,12.10
2010,05,06,13,49,12.10
2010,05,06,13,50,12.10
2010,05,06,13,51,12.10
2010,05,06,13,52,12.10
2010,05,06,13,53,12.10
2010,05,06,13,54,12.10
2010,05,06,13,55,12.00
2010,05,06,13,56,12.00
2010,05,06,13,57,11.90
2010,05,06,13,58,12.00
2010,05,06,13,59,12.00
2010,05,06,14,00,12.00
2010,05,06,14,01,12.00
2010,05,06,14,02,12.00
2010,05,06,14,03,12.10
2010,05,06,14,04,12.10
2010,05,06,14,05,12.10
2010,05,06,14,06,12.10
2010,05,06,14,07,12.10
2010,05,06,14,08,12.10
2010,05,06,14,09,12.10
2010,05,06,14,10,12.10
2010,05,06,14,11,12.10
2010,05,06,14,12,12.10
2010,05,06,14,13,12.10
2010,05,06,14,14,12.10
2010,05,06,14,15,12.20
2010,05,06,14,16,12.20
2010,05,06,14,17,12.20
2010,05,06,14,18,12.30
2010,05,06,14,19,12.30
2010,05,06,14,20,12.30
2010,05,06,14,21,12.30
2010,05,06,14,22,12.30
2010,05,06,14,23,12.30
2010,05,06,14,24,12.30
2010,05,06,14,25,12.30
2010,05,06,14,26,12.30
2010,05,06,14,27,12.30
2010,05,06,14,28,12.20
2010,05,06,14,29,12.20
2010,05,06,14,30,12.20
2010,05,06,14,31,12.20
2010,05,06,14,32,12.20
2010,05,06,14,33,12.20
2010,05,06,14,34,12.20
2010,05,06,14,35,12.30
2010,05,06,14,36,12.30
2010,05,06,14,37,12.30
2010,05,06,14,38,12.30
2010,05,06,14,39,12.30
2010,05,06,14,40,12.30
2010,05,06,14,41,12.30
2010,05,06,14,42,12.30
2010,05,06,14,43,12.30
2010,05,06,14,44,12.30
2010,05,06,14,45,12.20
2010,05,06,14,46,12.20
2010,05,06,14,47,12.20
2010,05,06,14,48,12.20
2010,05,06,14,49,12.20
2010,05,06,14,50,12.20
2010,05,06,14,51,12.20
2010,05,06,14,52,12.20
2010,05,06,14,53,12.10
2010,05,06,14,54,12.10
2010,05,06,14,55,12.10
2010,05,06,14,56,12.10
2010,05,06,14,57,12.10
2010,05,06,14,58,12.10
2010,05,06,14,59,12.10
2010,05,06,15,00,12.10
2010,05,06,15,01,12.10
2010,05,06,15,02,12.20
2010,05,06,15,03,12.20
2010,05,06,15,04,12.20
2010,05,06,15,05,12.20
2010,05,06,15,06,12.20
2010,05,06,15,07,12.10
2010,05,06,15,08,12.10
2010,05,06,15,09,12.10
2010,05,06,15,10,12.10
2010,05,06,15,11,12.10
2010,05,06,15,12,12.10
2010,05,06,15,13,12.20
2010,05,06,15,14,12.20
2010,05,06,15,15,12.10
2010,05,06,15,16,12.10
2010,05,06,15,17,12.10
2010,05,06,15,18,12.10
2010,05,06,15,19,12.10
2010,05,06,15,20,12.10
2010,05,06,15,21,12.10
2010,05,06,15,22,12.20
2010,05,06,15,23,12.20
2010,05,06,15,24,12.20
2010,05,06,15,25,12.20
2010,05,06,15,26,12.20
2010,05,06,15,27,12.20
2010,05,06,15,28,12.20
2010,05,06,15,29,12.30
2010,05,06,15,30,12.30
2010,05,06,15,31,12.30
2010,05,06,15,32,12.30
2010,05,06,15,33,12.30
2010,05,06,15,34,12.30
2010,05,06,15,35,12.30
2010,05,06,15,36,12.40
2010,05,06,15,37,12.40
2010,05,06,15,38,12.40
2010,05,06,15,39,12.40
2010,05,06,15,40,12.40
2010,05,06,15,41,12.30
2010,05,06,15,42,12.30
2010,05,06,15,43,12.30
2010,05,06,15,44,12.30
2010,05,06,15,45,12.30
2010,05,06,15,46,12.30
2010,05,06,15,47,12.30
2010,05,06,15,48,12.30
2010,05,06,15,49,12.20
2010,05,06,15,50,12.20
2010,05,06,15,51,12.30
2010,05,06,15,52,12.30
2010,05,06,15,53,12.30
2010,05,06,15,54,12.30
2010,05,06,15,55,12.30
2010,05,06,15,56,12.40
2010,05,06,15,57,12.40
2010,05,06,15,58,12.50
2010,05,06,15,59,12.50
2010,05,06,16,00,12.60
2010,05,06,16,01,12.60
2010,05,06,16,02,12.70
2010,05,06,16,03,12.80
2010,05,06,16,04,12.80
2010,05,06,16,05,12.80
2010,05,06,16,06,12.70
2010,05,06,16,07,12.70
2010,05,06,16,08,12.60
2010,05,06,16,09,12.60
2010,05,06,16,10,12.60
2010,05,06,16,11,12.70
2010,05,06,16,12,12.70
2010,05,06,16,13,12.80
2010,05,06,16,14,12.80
2010,05,06,16,15,12.70
2010,05,06,16,16,12.70
2010,05,06,16,17,12.70
2010,05,06,16,18,12.80
2010,05,06,16,19,12.80
2010,05,06,16,20,12.80
2010,05,06,16,21,12.90
2010,05,06,16,22,12.90
2010,05,06,16,23,13.00
2010,05,06,16,24,13.10
2010,05,06,16,25,13.10
2010,05,06,16,26,13.00
2010,05,06,16,27,13.00
2010,05,06,16,28,12.90
2010,05,06,16,29,12.80
2010,05,06,16,30,12.80
2010,05,06,16,31,12.80
2010,05,06,16,32,12.80
2010,05,06,16,33,12.80
2010,05,06,16,34,12.80
2010,05,06,16,35,12.80
2010,05,06,16,36,12.80
2010,05,06,16,37,12.80
2010,05,06,16,38,12.80
2010,05,06,16,39,12.80
2010,05,06,16,40,12.70
2010,05,06,16,41,12.60
2010,05,06,16,42,12.60
2010,05,06,16,43,12.60
2010,05,06,16,44,12.70
2010,05,06,16,45,12.70
2010,05,06,16,46,12.60
2010,05,06,16,47,12.60
2010,05,06,16,48,12.60
2010,05,06,16,49,12.60
2010,05,06,16,50,12.70
2010,05,06,16,51,12.70
2010,05,06,16,52,12.70
2010,05,06,16,53,12.60
2010,05,06,16,54,12.50
2010,05,06,16,55,12.50
2010,05,06,16,56,12.50
2010,05,06,16,57,12.60
2010,05,06,16,58,12.60
2010,05,06,16,59,12.60
2010,05,06,17,00,12.70
2010,05,06,17,01,12.70
2010,05,06,17,02,12.70
2010,05,06,17,03,12.70
2010,05,06,17,04,12.80
2010,05,06,17,05,12.80
2010,05,06,17,06,12.70
2010,05,06,17,07,12.70
2010,05,06,17,08,12.60
2010,05,06,17,09,12.60
2010,05,06,17,10,12.70
2010,05,06,17,11,12.70
2010,05,06,17,12,12.80
2010,05,06,17,13,12.90
2010,05,06,17,14,13.00
2010,05,06,17,15,13.20
2010,05,06,17,16,13.20
2010,05,06,17,17,13.20
2010,05,06,17,18,13.20
2010,05,06,17,19,13.30
2010,05,06,17,20,13.30
2010,05,06,17,21,13.40
2010,05,06,17,22,13.50
2010,05,06,17,23,13.60
2010,05,06,17,24,13.70
2010,05,06,17,25,13.80
2010,05,06,17,26,13.90
2010,05,06,17,27,14.00
2010,05,06,17,28,14.10
2010,05,06,17,29,14.10
2010,05,06,17,30,14.00
2010,05,06,17,31,14.00
2010,05,06,17,32,13.90
2010,05,06,17,33,13.90
2010,05,06,17,34,13.90
2010,05,06,17,35,13.80
2010,05,06,17,36,13.80
2010,05,06,17,37,13.70
2010,05,06,17,38,13.60
2010,05,06,17,39,13.60
2010,05,06,17,40,13.60
2010,05,06,17,41,13.50